This is the latest recevied weather packets stored in our database for station/object SP2MHC-2. If no packets are shown the sender has not sent any weather packets the latest 10 day(s).
| Time | Temp. | Humidity | Pressure | Rain* | Wind** | Luminosity | Snow |
|---|---|---|---|---|---|---|---|
| 1777628415 | 24.44° C | 29% | 1023.8 hPa | - | - | - | - |
| 1777627521 | 23.89° C | 29% | 1023.9 hPa | - | - | - | - |
| 1777627515 | 23.89° C | 29% | 1023.9 hPa | - | - | - | - |
| 1777626617 | 25.56° C | 27% | 1024.1 hPa | - | - | - | - |
| 1777626615 | 25.56° C | 27% | 1024.1 hPa | - | - | - | - |
| 1777625717 | 23.89° C | 29% | 1024.3 hPa | - | - | - | - |
| 1777625715 | 23.89° C | 29% | 1024.3 hPa | - | - | - | - |
| 1777624816 | 22.22° C | 31% | 1024.4 hPa | - | - | - | - |
| 1777624815 | 22.22° C | 31% | 1024.4 hPa | - | - | - | - |
| 1777623965 | 21.11° C | 32% | 1024.4 hPa | - | - | - | - |
| 1777623917 | 21.11° C | 32% | 1024.4 hPa | - | - | - | - |
| 1777623915 | 21.11° C | 32% | 1024.4 hPa | - | - | - | - |
| 1777623067 | 21.67° C | 31% | 1024.5 hPa | - | - | - | - |
| 1777623016 | 21.67° C | 31% | 1024.5 hPa | - | - | - | - |
| 1777623014 | 21.67° C | 31% | 1024.5 hPa | - | - | - | - |
| 1777622165 | 22.22° C | 29% | 1024.5 hPa | - | - | - | - |
| 1777622116 | 22.22° C | 29% | 1024.5 hPa | - | - | - | - |
| 1777622114 | 22.22° C | 29% | 1024.5 hPa | - | - | - | - |
| 1777621217 | 21.67° C | 30% | 1024.5 hPa | - | - | - | - |
| 1777621214 | 21.67° C | 30% | 1024.5 hPa | - | - | - | - |
| 1777620364 | 21.11° C | 31% | 1024.5 hPa | - | - | - | - |
| 1777620317 | 21.11° C | 31% | 1024.5 hPa | - | - | - | - |
| 1777620314 | 21.11° C | 31% | 1024.5 hPa | - | - | - | - |
| 1777619416 | 21.11° C | 32% | 1024.4 hPa | - | - | - | - |
| 1777619414 | 21.11° C | 32% | 1024.4 hPa | - | - | - | - |
* Rain since midnight (hover to see other rain measurements)
** Current wind speed in m/s (hover to see current wind gust speed)